User: anonymous   Login
Location: Lawrence
(38.9720°N, 95.2350°W)
Time: 12:38:46
(UTC-05:00)
Language:

ALOS - Orbit

View from above orbital plane
View from above orbital plane
View from above satellite
View from above satellite

Ground track
Ground track

The orbit data is extracted from the following two-line orbital elements,

1 28931U 06002A   16177.22226751  .00000247  00000-0  57708-4 0  9994
2 28931  97.8837 215.6454 0001932  56.9384 303.2003 14.62204983555290
Epoch (UTC): 25 June 2016 05:20:03
Eccentricity: 0.0001932
inclination: 97.8837°
perigee height: 685 km
apogee height: 687 km
right ascension of ascending node: 215.6454°
argument of perigee: 56.9384°
revolutions per day: 14.62204983
mean anomaly at epoch: 303.2003°
orbit number at epoch: 55529

The dashed part of the orbit path shows where the satellite is in the earth's shadow,  

DLR